Weather History for Renton, WA

Change the Weather History Date:

Thursday, September 5, 2013

  Actual Average Record
Temperature  
Mean Temperature 64 °F -  
Max Temperature 68 °F 72 °F 86 °F (1998)
Min Temperature 62 °F 53 °F 46 °F (2002)
Degree Days  
Heating Degree Days 1    
Growing Degree Days 14 (Base 50)    
Moisture  
Dew Point 55 °F    
Average Humidity 76    
Maximum Humidity 94    
Minimum Humidity 48    
Precipitation  
Precipitation 0.61 in - - ()
Sea Level Pressure  
Sea Level Pressure 30.01 in    
Wind  
Wind Speed 3 mph (WNW)    
Max Wind Speed 12 mph    
Max Gust Speed -    
Visibility 8 miles    
Events Rain , Thunderstorm    
Averages and records for this station are not official NWS values.
T = Trace of Precipitation, MM = Missing Value Source: NWS Daily Summary

Daily Weather History Graph

Daily Weather History Graph

Search for Another Location

Airport:

Trip Planner

Search our weather history database for the weather conditions in past years. The results will help you decide how hot, cold, wet, or windy it might be!

Date:

Astronomy

Sep. 05, 2013 Rise Set
Actual Time 6:33 AM PDT 7:40 PM PDT
Civil Twilight 6:01 AM PDT 8:11 PM PDT
Nautical Twilight 5:23 AM PDT 8:49 PM PDT
Astronomical Twilight 4:43 AM PDT 9:29 PM PDT
Moon 6:55 AM PDT (9/5) 7:28 PM PDT (9/5)
Length of Visible Light 14h 10m
Length of Day
13h 07m
New Moon, 0% of the Moon is Illuminated
Sep 5
New Moon
Sep 12
First Quarter
Sep 19
Full
Sep 26
Last Quarter
Oct 4
New

Hourly Weather History & Observations

Time (PDT) Temp. Dew Point Humidity Pressure Visibility Wind Dir Wind Speed Gust Speed Precip Events Conditions
12:53 AM 62.1 °F 59.0 °F 90% 30.05 in 10.0 mi Calm Calm - N/A   Clear
1:53 AM 62.1 °F 55.9 °F 80% 30.05 in 10.0 mi South 3.5 mph - N/A   Scattered Clouds
2:53 AM 62.1 °F 57.0 °F 84% 30.02 in 10.0 mi SSW 3.5 mph - N/A   Clear
3:49 AM 62.6 °F 53.6 °F 72% 30.02 in 9.0 mi Calm Calm - N/A   Scattered Clouds
3:53 AM 62.1 °F 51.1 °F 67% 30.04 in 9.0 mi Calm Calm - N/A   Scattered Clouds
4:30 AM 62.6 °F 53.6 °F 72% 30.02 in 9.0 mi Calm Calm - N/A   Mostly Cloudy
4:53 AM 62.1 °F 55.0 °F 78% 30.03 in 9.0 mi Calm Calm - N/A   Overcast
5:15 AM 62.6 °F 55.4 °F 77% 30.02 in 9.0 mi Calm Calm - 0.00 in   Mostly Cloudy
5:53 AM 63.0 °F 57.9 °F 84% 30.04 in 9.0 mi Calm Calm - 0.00 in   Mostly Cloudy
5:58 AM 62.6 °F 59.0 °F 88% 30.03 in 10.0 mi South 4.6 mph - N/A   Overcast
6:09 AM 62.6 °F 59.0 °F 88% 30.04 in 7.0 mi Calm Calm - 0.00 in Rain , Thunderstorm Light Thunderstorms and Rain
6:16 AM 62.6 °F 59.0 °F 88% 30.04 in 5.0 mi Calm Calm - 0.01 in Rain , Thunderstorm Light Thunderstorms and Rain
6:26 AM 62.6 °F 59.0 °F 88% 30.03 in 7.0 mi Calm Calm - 0.01 in Rain Light Rain
6:53 AM 62.1 °F 59.0 °F 90% 30.04 in 4.0 mi Calm Calm - 0.03 in Rain Rain
6:59 AM 62.6 °F 59.0 °F 88% 30.04 in 5.0 mi SSE 3.5 mph - 0.01 in Rain Light Rain
7:53 AM 62.1 °F 60.1 °F 93% 30.03 in 4.0 mi Calm Calm - 0.10 in Rain Light Rain
8:03 AM 62.6 °F 59.0 °F 88% 30.00 in 1.8 mi NNW 10.4 mph - 0.06 in Rain Heavy Rain
8:14 AM 62.6 °F 60.8 °F 94% 30.02 in 3.0 mi NW 6.9 mph - 0.09 in Rain Light Rain
8:53 AM 63.0 °F 60.1 °F 90% 30.04 in 10.0 mi Calm Calm - 0.10 in Rain Light Rain
9:12 AM 64.4 °F 60.8 °F 88% 30.02 in 10.0 mi WNW 5.8 mph - 0.00 in Rain Light Rain
9:53 AM 64.0 °F 60.1 °F 87% 30.03 in 10.0 mi WNW 5.8 mph - 0.00 in   Overcast
10:44 AM 64.4 °F 60.8 °F 88% 30.02 in 10.0 mi NW 9.2 mph - N/A   Overcast
10:53 AM 64.0 °F 60.1 °F 87% 30.04 in 10.0 mi WNW 8.1 mph - 0.01 in   Overcast
11:53 AM 66.0 °F 60.1 °F 81% 30.04 in 10.0 mi NW 8.1 mph - N/A   Overcast
12:53 PM 66.0 °F 60.1 °F 81% 30.02 in 10.0 mi WNW 8.1 mph - N/A   Overcast
1:53 PM 66.9 °F 60.1 °F 79% 30.01 in 10.0 mi WNW 9.2 mph - N/A   Scattered Clouds
2:43 PM 66.2 °F 60.8 °F 83% 29.99 in 10.0 mi NNW 11.5 mph - N/A   Mostly Cloudy
2:51 PM 66.2 °F 59.0 °F 78% 29.98 in 10.0 mi NNW 9.2 mph - N/A   Scattered Clouds
2:53 PM 66.0 °F 59.0 °F 78% 30.00 in 10.0 mi NNW 9.2 mph - N/A   Scattered Clouds
3:53 PM 66.9 °F 57.9 °F 73% 29.99 in 10.0 mi NNW 8.1 mph - N/A   Clear
4:37 PM 66.2 °F 57.2 °F 73% 29.97 in 10.0 mi NW 9.2 mph - N/A   Overcast
4:53 PM 66.0 °F 57.9 °F 75% 29.98 in 10.0 mi NNW 9.2 mph - N/A   Overcast
5:53 PM 66.0 °F 59.0 °F 78% 29.97 in 9.0 mi NNW 10.4 mph - 0.00 in Rain Light Rain
6:53 PM 64.0 °F 45.0 °F 50% 29.96 in 10.0 mi NW 4.6 mph - 0.05 in   Mostly Cloudy
7:53 PM 64.0 °F 50.0 °F 60% 29.96 in 10.0 mi Calm Calm - N/A   Overcast
8:53 PM 63.0 °F 46.9 °F 56% 29.96 in 10.0 mi Calm Calm - N/A   Overcast
9:53 PM 63.0 °F 45.0 °F 52% 29.97 in 10.0 mi SSE 3.5 mph - N/A   Overcast
10:10 PM 64.4 °F 44.6 °F 49% 29.96 in 10.0 mi SSE 4.6 mph - N/A Thunderstorm Overcast
10:53 PM 63.0 °F 45.0 °F 52% 29.97 in 5.0 mi South 5.8 mph - 0.05 in Rain , Thunderstorm Rain
11:16 PM 62.6 °F 44.6 °F 52% 29.99 in 2.5 mi ESE 6.9 mph - 0.11 in Rain , Thunderstorm Heavy Rain
11:35 PM 62.6 °F 42.8 °F 48% 29.95 in 3.0 mi South 9.2 mph - 0.20 in Rain , Thunderstorm Thunderstorms and Rain
11:44 PM 62.6 °F 44.6 °F 52% 29.97 in 4.0 mi Variable 4.6 mph - 0.22 in Rain , Thunderstorm Thunderstorms and Rain
11:53 PM 62.1 °F 45.0 °F 53% 29.99 in 2.5 mi ESE 3.5 mph - 0.27 in Rain Heavy Rain